This is the latest recevied weather packets stored in our database for station/object EDXW. If no packets are shown the sender has not sent any weather packets the latest 10 day(s).
| Time | Temp. | Humidity | Pressure | Rain* | Wind** | Luminosity | Snow |
|---|---|---|---|---|---|---|---|
| 1777950602 | 6.67° C | 85% | 1013 hPa | 0 mm | - | - | - |
| 1777947002 | 5.56° C | 90% | 1013 hPa | 0 mm | - | - | - |
| 1777943402 | 6.67° C | 85% | 1013 hPa | 0 mm | - | - | - |
| 1777939802 | 5.56° C | 90% | 1014 hPa | 0 mm | - | - | - |
| 1777936202 | 5.56° C | 90% | 1014 hPa | 0 mm | - | - | - |
| 1777929002 | 6.67° C | 85% | 1014 hPa | 0 mm | - | - | - |
| 1777925402 | 6.67° C | 85% | 1014 hPa | 0 mm | - | - | - |
| 1777921802 | 6.67° C | 85% | 1014 hPa | 0 mm | - | - | - |
| 1777911002 | 10° C | 75% | 1014 hPa | 0 mm | - | - | - |
| 1777907402 | 10° C | 75% | 1014 hPa | 0 mm | - | - | - |
| 1777903802 | 10° C | 80% | 1014 hPa | 0 mm | - | - | - |
| 1777900202 | 10° C | 80% | 1014 hPa | 0 mm | - | - | - |
| 1777896602 | 10° C | 80% | 1014 hPa | 0 mm | - | - | - |
| 1777893001 | 10° C | 80% | 1014 hPa | 0 mm | - | - | - |
| 1777889402 | 10° C | 80% | 1013 hPa | 0 mm | - | - | - |
| 1777882202 | 10° C | 85% | 1013 hPa | 0 mm | - | - | - |
| 1777853402 | 10° C | 10% | 1007 hPa | 0 mm | - | - | - |
| 1777849801 | 10.56° C | 10% | 1008 hPa | 0 mm | - | - | - |
| 1777846202 | 11.67° C | 10% | 1008 hPa | 0 mm | - | - | - |
| 1777842601 | 12.78° C | 10% | 1008 hPa | 0 mm | - | - | - |
| 1777839005 | 11.67° C | 10% | 1008 hPa | 0 mm | - | - | - |
| 1777835402 | 10.56° C | 10% | 1008 hPa | 0 mm | - | - | - |
| 1777831801 | 10.56° C | 10% | 1008 hPa | 0 mm | - | - | - |
| 1777828202 | 11.67° C | 95% | 1008 hPa | 0 mm | - | - | - |
| 1777824602 | 12.78° C | 95% | 1008 hPa | 0 mm | - | - | - |
* Rain latest 24 hours (hover to see other rain measurements)
** Current wind speed in m/s (hover to see current wind gust speed)